sat.trackr.live / text

‹ back to catalog

PERSEUS-M1

NORAD 40039 · 2014-033AF

PAYLOAD ACTIVE UNKNOWN

§ Identity

Operator
Country
CIS
Launch date
2014-06-19
Launch site
DLS
Launch vehicle
Mass (kg)
RCS (m²)
0.13

Purposes: tech_demo

External: N2YO · Heavens-Above · Gunter

§ Orbital elements

Epoch: 2026-09-20T02:18:47.416032Z

Period
96.26 min
Inclination
97.9721°
Eccentricity
0.0011328
Mean motion
14.95889046 rev/d
Perigee alt
571.7 km
Apogee alt
587.5 km
Semi-major
6,957.8 km
B*
6.5627e-5
RAAN
208.8348°
Arg perigee
349.7929°
Mean anomaly
10.3060°
Rev number
66,482

§ Raw data

PERSEUS-M11 40039U 14033AF  26263.09638213  .00000673  00000+0  65627-4 0  99932 40039  97.9721 208.8348 0011328 349.7929  10.3060 14.95889046664824

JSON: /api/v1/satellites/40039 · /tle

For live sub-satellite position, see the globe view (requires WebGL).

§ Visibility from observer

Set your observer location to see the next 7 days of passes ≥ 10°. The values pass through the URL so the page stays shareable.

No JS? Fill the form by hand. The geolocation button needs JavaScript.

§ Radio — SatNOGS DB

ModeDescriptionDownlinkUplink
GFSK GFSK 400.170 MHz

1 transmitter · refreshed weekly from db.satnogs.org